Home > Weather > Speyer > Past weeks

Flag for Germany Past Weather in Speyer, Rhineland-Palatinate, Germany — Yesterday and Last 2 Weeks

Now
63 °F

Partly cloudy.


Feels Like: 63 °F
Forecast: 63 / 80 °F
Wind: No wind

Location: Ramstein

Current Time: Jul 29, 2016 at 2:20:26 AM

Latest Report: Jul 29, 2016 at 1:58 AM


Visibility: N/A

Pressure: 29.98 "Hg

Humidity: 99%

Dew Point: 62 °F

Location of SpeyerLocation

Past Weather in Speyer — Graph

°F

Speyer Temperature Yesterday

Maximum temperature yesterday: 75 °F (at 4:58 PM)
Minimum temperature yesterday: 57 °F (at 4:58 AM)
Average temperature yesterday: 66 °F

High & Low Weather Summary for the Past Weeks

 TemperatureHumidityPressure
High93 °F (Jul 20, 3:58 PM)100% (Jul 15, 3:58 AM)30.33 "Hg (Jul 15, 3:58 AM)
Low43 °F (Jul 16, 4:59 AM)30% (Jul 20, 3:58 PM)29.89 "Hg (Jul 20, 11:58 PM)
Average68 °F77%30.10 "Hg
* Reported Jul 13 11:58 PM — Jul 28 11:58 PM, Speyer, Weather by CustomWeather, © 2016

Note: Actual official high and low records may vary slightly from our data, if they occured in-between our weather recording intervals... More about our weather records

Advertising

Speyer Weather History for the Previous 24 Hours

Scroll right to see more
 ConditionsComfort  
Time TempWeatherWind HumidityBarometerVisibility
11:58 PM
Thu, Jul 28
64 °FPassing clouds.7 mph95%29.98 "HgN/A
9:58 PM66 °FPartly sunny.1 mph98%29.98 "HgN/A
8:58 PM67 °FBroken clouds.No wind94%29.98 "HgN/A
6:58 PM65 °FLight rain. Partly sunny.7 mph99%30.00 "HgN/A
5:58 PM73 °FBroken clouds.10 mph61%29.97 "HgN/A
4:58 PM75 °FBroken clouds.7 mph57%29.98 "HgN/A
3:58 PM74 °FScattered clouds.9 mph59%30.00 "HgN/A
2:58 PM72 °FPartly sunny.8 mph63%30.02 "HgN/A
1:58 PM74 °FScattered clouds.9 mph61%30.03 "HgN/A
12:58 PM73 °FBroken clouds.8 mph61%30.04 "HgN/A
11:58 AM72 °FBroken clouds.6 mph61%30.04 "HgN/A
10:58 AM70 °FPassing clouds.6 mph67%30.04 "HgN/A
9:58 AM68 °FScattered clouds.No wind73%30.03 "HgN/A
8:58 AM64 °FPassing clouds.1 mph85%30.05 "HgN/A
8:01 AM63 °FSunny.No wind94%30.05 "HgN/A
6:58 AM59 °FScattered clouds.No wind100%30.03 "HgN/A
5:58 AM59 °FOvercast.No wind100%30.03 "HgN/A
4:58 AM57 °FPassing clouds.No wind100%30.03 "HgN/A
3:58 AM61 °FOvercast.No wind94%30.05 "HgN/A
2:58 AM59 °FOvercast.No wind100%30.05 "HgN/A
Weather by CustomWeather, © 2016

See weather overviewHow to use our weather pages